Simultaneous Nadir Overpasses (SNOs) Predictions

Prediction of SNOs between NOAA-20 and LANDSAT-8 Satellite Orbit:

Table of predicted SNOs for the next 14.0 days since TLE Epoch: 6/8/2018
Index Date (NOAA-20) Time (NOAA-20) Lat,Lon (NOAA-20) SZA (NOAA-20 ) Date (LANDSAT-8) Time (LANDSAT-8) Lat,Lon (LANDSAT-8) SZA (LANDSAT-8 ) Distance(km) Time Diff (sec)
1 06/08/2018 22:48:25 -70.11, 14.04 132.85 06/08/2018 22:48:59 -70.11, 13.98 132.86 2.09 34
2 06/08/2018 23:39:09 69.99,-178.47 47.03 06/08/2018 23:38:26 70.01,-178.52 47.05 2.26 43
3 06/11/2018 14:14:45 70.65, -38.35 47.52 06/11/2018 14:15:55 70.50, -37.20 47.33 45.65 70
4 06/11/2018 15:05:18 -70.09, 129.85 133.08 06/11/2018 15:05:31 -70.06, 129.79 133.10 3.41 13
5 06/11/2018 15:56:02 69.97, -62.67 46.81 06/11/2018 15:54:58 69.96, -62.71 46.80 2.36 64
6 06/14/2018 06:31:28 70.16, 78.21 46.85 06/14/2018 06:32:31 70.17, 78.19 46.86 1.88 63
7 06/14/2018 07:22:10 -70.07,-114.34 133.25 06/14/2018 07:22:01 -70.07,-114.32 133.25 0.85 9
8 06/14/2018 08:12:46 69.53, 53.77 46.19 06/14/2018 08:11:35 69.57, 52.64 46.28 44.25 71
9 06/16/2018 22:48:21 70.14,-165.99 46.73 06/16/2018 22:49:03 70.12,-166.01 46.70 2.30 42
10 06/16/2018 23:39:03 -70.05, 1.47 133.37 06/16/2018 23:38:33 -70.02, 1.49 133.40 3.00 30
11 06/19/2018 14:14:47 -71.12, 140.89 132.30 06/19/2018 14:15:53 -70.99, 143.54 132.51 96.39 66
12 06/19/2018 15:05:14 70.12, -50.18 46.66 06/19/2018 15:05:34 70.12, -50.13 46.65 2.07 20
13 06/19/2018 15:55:55 -69.97, 117.36 133.50 06/19/2018 15:55:05 -69.96, 117.29 133.50 2.90 50
14 06/22/2018 06:31:26 -70.37,-102.10 133.09 06/22/2018 06:32:37 -70.28,-101.66 133.20 18.98 71
15 06/22/2018 07:22:06 70.05, 65.70 46.58 06/22/2018 07:22:06 70.06, 65.66 46.58 1.51 0
16 06/22/2018 08:12:48 -69.95,-126.84 133.52 06/22/2018 08:11:36 -69.96,-126.84 133.51 0.84 72




NCC Satellite Simultaneous Nadir Overpasses (SNOs) Prediction Service
